This is the latest recevied weather packets stored in our database for station/object N8AMF. If no packets are shown the sender has not sent any weather packets the latest 10 day(s).
| Time | Temp. | Humidity | Pressure | Rain* | Wind** | Luminosity | Snow |
|---|---|---|---|---|---|---|---|
| 1777366337 | 15° C | 95% | 1005.4 hPa | 0 mm | - | 0 W/m² | - |
| 1777366034 | 15° C | 95% | 1005.6 hPa | 0 mm | - | 0 W/m² | - |
| 1777365730 | 15° C | 96% | 1005.8 hPa | 0 mm | - | 0 W/m² | - |
| 1777365426 | 15° C | 96% | 1005.7 hPa | 0 mm | - | 0 W/m² | - |
| 1777365124 | 15° C | 96% | 1005.7 hPa | 0 mm | - | 0 W/m² | - |
| 1777364818 | 15° C | 96% | 1005.7 hPa | 0 mm | - | 0 W/m² | - |
| 1777364514 | 15° C | 96% | 1005.5 hPa | 0 mm | - | 0 W/m² | - |
| 1777364210 | 15° C | 96% | 1005.6 hPa | 0 mm | - | 0 W/m² | - |
| 1777363907 | 15° C | 96% | 1005.8 hPa | 0 mm | - | 0 W/m² | - |
| 1777363603 | 15° C | 97% | 1005.6 hPa | 0 mm | - | 0 W/m² | - |
| 1777363300 | 15° C | 96% | 1005.4 hPa | 0 mm | - | 0 W/m² | - |
| 1777362997 | 15° C | 96% | 1005.9 hPa | 0.51 mm | - | 0 W/m² | - |
| 1777362694 | 15° C | 96% | 1006.1 hPa | 0.51 mm | - | 0 W/m² | - |
| 1777362392 | 15° C | 96% | 1005.8 hPa | 0.51 mm | - | 0 W/m² | - |
| 1777362089 | 15° C | 96% | 1006.7 hPa | 1.27 mm | - | 0 W/m² | - |
| 1777361787 | 15° C | 96% | 1006.9 hPa | 1.27 mm | - | 0 W/m² | - |
| 1777361483 | 15° C | 95% | 1007.9 hPa | 0.51 mm | - | 0 W/m² | - |
| 1777361181 | 15° C | 95% | 1008.2 hPa | 0.51 mm | - | 0 W/m² | - |
| 1777360878 | 15° C | 95% | 1008.4 hPa | 0.51 mm | - | 0 W/m² | - |
| 1777360576 | 15° C | 95% | 1008.9 hPa | 0.51 mm | - | 0 W/m² | - |
| 1777360272 | 15.56° C | 94% | 1009.3 hPa | 1.27 mm | - | 0 W/m² | - |
| 1777359969 | 15.56° C | 94% | 1009.4 hPa | 2.29 mm | - | 0 W/m² | - |
| 1777359666 | 15.56° C | 94% | 1009.9 hPa | 2.29 mm | - | 0 W/m² | - |
| 1777359363 | 15.56° C | 93% | 1010.1 hPa | 2.29 mm | - | 0 W/m² | - |
| 1777359060 | 15.56° C | 93% | 1010.1 hPa | 3.56 mm | - | 0 W/m² | - |
* Rain latest hour (hover to see other rain measurements)
** Current wind speed in m/s (hover to see current wind gust speed)